Date String (YYYY-MM-DD hh:mm:ss) UTC,Instrument flags,absolute air pressure of the measurement (hPa),sample flow rate (lpm),inlet stack bypass flow (lpm),air temperature of the measurement (°C),ambient temperature measured by the external sensor (°C),aerosol sample conditioner tube jacket temperature (°C),OPC LED temperature (°C),internal box temperature (°C),relative humidity of the measurement (%),span deviation,mass concentration of particles derived from Lorenz-Mie calculation of OPC scattering (μg/m³),mass concentration of particles derived from Lorenz-Mie calculation of OPC scattering (μg/m³),mass concentration of particles derived from Lorenz-Mie calculation of OPC scattering (μg/m³)
DateTimeUTC,F1_M11,P_M11,Q1_M11,Q2_M11,T1_M11,T2_M11,T3_M11,T4_M11,T5_M11,U1_M11,ZSPAN_M11,X0_M11,X2_M11,X1_M11
2024-04-02 18:00:00,SystemResetWarning,0832.3,4.99,000.00,020.0,019.5,000.0,028.2,021.7,17.2,0000.0,0005.79,0002.87,0001.67
2024-04-02 18:01:00,SystemResetWarning,0832.2,5.00,000.00,020.0,019.5,000.0,028.2,021.7,17.1,0000.0,0005.98,0002.96,0001.69
2024-04-02 18:02:00,SystemResetWarning,0832.2,5.00,000.00,020.0,019.5,000.0,028.3,021.7,16.6,0000.0,0006.23,0003.05,0001.71
2024-04-02 18:03:00,SystemResetWarning,0832.2,5.00,000.00,020.0,019.5,000.0,028.3,021.7,17.7,0000.0,0006.82,0003.11,0001.72
2024-04-02 18:04:00,SystemResetWarning,0832.2,5.01,000.00,020.0,019.5,000.0,028.3,021.8,17.9,0000.0,0006.91,0003.13,0001.72
2024-04-02 18:05:00,SystemResetWarning,0832.2,5.00,000.00,020.0,019.6,000.0,028.3,021.8,18.5,0000.0,0006.86,0003.11,0001.72
2024-04-02 18:06:00,SystemResetWarning,0832.2,5.00,000.00,020.0,019.6,000.0,028.3,021.8,18.2,0000.0,0006.54,0003.07,0001.71
2024-04-02 18:07:00,SystemResetWarning,0832.1,4.99,000.00,020.0,019.6,000.0,028.3,021.8,18.3,0000.0,0006.43,0003.10,0001.72
2024-04-02 18:08:00,SystemResetWarning,0832.1,5.00,000.00,020.1,019.6,000.0,028.3,021.8,17.6,0000.0,0006.14,0003.06,0001.72
2024-04-02 18:09:00,SystemResetWarning,0832.1,5.00,000.00,020.1,019.6,000.0,028.3,021.8,16.7,0000.0,0005.75,0003.01,0001.73
2024-04-02 18:10:00,SystemResetWarning,0832.1,5.00,000.00,020.1,019.6,000.0,028.3,021.8,16.9,0000.0,0005.72,0002.99,0001.74
2024-04-02 18:11:00,SystemResetWarning,0832.1,5.00,000.00,020.1,019.7,000.0,028.4,021.8,17.2,0000.0,0005.63,0002.98,0001.77
2024-04-02 18:12:00,SystemResetWarning,0832.1,5.00,000.00,020.1,019.7,000.0,028.4,021.9,16.8,0000.0,0005.50,0002.94,0001.75
2024-04-02 18:13:00,SystemResetWarning,0832.0,5.00,000.00,020.1,019.7,000.0,028.4,021.9,16.3,0000.0,0005.52,0002.91,0001.73
2024-04-02 18:14:00,SystemResetWarning,0832.0,5.00,000.00,020.1,019.7,000.0,028.4,021.9,17.2,0000.0,0005.14,0002.87,0001.71
2024-04-02 18:15:00,SystemResetWarning,0832.0,5.00,000.00,020.2,019.7,000.0,028.4,021.9,16.4,0000.0,0005.10,0002.88,0001.71
2024-04-02 18:16:00,SystemResetWarning,0832.0,5.00,000.00,020.2,019.7,000.0,028.4,021.9,16.4,0000.0,0005.26,0002.91,0001.70
2024-04-02 18:17:00,SystemResetWarning,0832.0,5.01,000.00,020.2,019.7,000.0,028.4,021.9,16.9,0000.0,0005.46,0002.99,0001.69
2024-04-02 18:18:00,SystemResetWarning,0832.0,5.00,000.00,020.2,019.8,000.0,028.4,021.9,16.0,0000.0,0005.26,0002.89,0001.68
2024-04-02 18:19:00,SystemResetWarning,0832.0,5.00,000.00,020.2,019.8,000.0,028.5,022.0,16.3,0000.0,0005.29,0002.90,0001.68
2024-04-02 18:20:00,SystemResetWarning,0832.0,4.99,000.00,020.2,019.8,000.0,028.5,022.0,16.6,0000.0,0005.46,0002.96,0001.67
2024-04-02 18:21:00,SystemResetWarning,0832.0,4.99,000.00,020.2,019.8,000.0,028.5,022.0,15.7,0000.0,0005.44,0002.94,0001.66
2024-04-02 18:22:00,SystemResetWarning,0831.9,5.00,000.00,020.3,019.8,000.0,028.5,022.0,15.1,0000.0,0005.31,0002.87,0001.65
2024-04-02 18:23:00,SystemResetWarning,0832.0,5.00,000.00,020.3,019.8,000.0,028.5,022.0,15.5,0000.0,0005.46,0002.88,0001.65
2024-04-02 18:24:00,SystemResetWarning,0831.9,5.00,000.00,020.3,019.8,000.0,028.5,022.0,15.9,0000.0,0005.26,0002.84,0001.65
2024-04-02 18:25:00,SystemResetWarning,0831.9,5.00,000.00,020.3,019.9,000.0,028.5,022.0,15.7,0000.0,0005.51,0002.89,0001.65
2024-04-02 18:26:00,SystemResetWarning,0831.9,5.00,000.00,020.3,019.9,000.0,028.5,022.1,15.4,0000.0,0005.46,0002.88,0001.66
2024-04-02 18:27:00,SystemResetWarning,0831.9,5.00,000.00,020.3,019.9,000.0,028.6,022.1,16.3,0000.0,0005.29,0002.83,0001.65
2024-04-02 18:28:00,SystemResetWarning,0831.8,5.00,000.00,020.3,019.9,000.0,028.6,022.1,15.7,0000.0,0005.17,0002.80,0001.67
2024-04-02 18:29:00,SystemResetWarning,0832.0,5.00,000.00,020.3,019.9,000.0,028.6,022.1,15.0,0000.0,0005.25,0002.83,0001.69
2024-04-02 18:30:00,SystemResetWarning,0832.2,5.00,000.00,020.4,019.9,000.0,028.6,022.1,15.5,0000.0,0005.65,0002.86,0001.68
2024-04-02 18:31:00,SystemResetWarning,0832.3,5.00,000.00,020.4,019.9,000.0,028.6,022.1,16.5,0000.0,0005.78,0002.90,0001.68
2024-04-02 18:32:00,SystemResetWarning,0831.9,5.00,000.00,020.4,019.9,000.0,028.6,022.1,16.2,0000.0,0005.93,0002.94,0001.68
2024-04-02 18:33:00,SystemResetWarning,0832.3,5.00,000.00,020.4,020.0,000.0,028.6,022.2,15.8,0000.0,0006.01,0002.95,0001.67
2024-04-02 18:34:00,SystemResetWarning,0832.2,5.02,000.00,020.4,020.0,000.0,028.7,022.2,15.6,0000.0,0005.94,0002.96,0001.67
2024-04-02 18:35:00,SystemResetWarning,0831.7,5.00,000.00,020.4,020.0,000.0,028.7,022.2,15.8,0000.0,0005.85,0002.93,0001.67
2024-04-02 18:36:00,SystemResetWarning,0831.8,5.00,000.00,020.5,020.0,000.0,028.7,022.2,16.7,0000.0,0005.70,0002.90,0001.68
2024-04-02 18:37:00,SystemResetWarning,0831.7,5.00,000.00,020.5,020.0,000.0,028.7,022.2,16.7,0000.0,0005.83,0002.89,0001.66
2024-04-02 18:38:00,SystemResetWarning,0831.8,4.99,000.00,020.5,020.1,000.0,028.7,022.2,16.7,0000.0,0005.92,0002.90,0001.65
2024-04-02 18:39:00,SystemResetWarning,0831.7,5.00,000.00,020.5,020.1,000.0,028.7,022.3,16.0,0000.0,0005.84,0002.88,0001.62
2024-04-02 18:40:00,SystemResetWarning,0831.7,5.00,000.00,020.5,020.1,000.0,028.7,022.3,15.8,0000.0,0006.78,0002.83,0001.60
2024-04-02 18:41:00,SystemResetWarning,0831.7,5.00,000.00,020.5,020.1,000.0,028.8,022.3,16.5,0000.0,0006.48,0002.82,0001.61
2024-04-02 18:42:00,SystemResetWarning,0831.7,5.00,000.00,020.5,020.1,000.0,028.8,022.3,15.8,0000.0,0006.31,0002.76,0001.61
2024-04-02 18:43:00,SystemResetWarning,0831.7,5.00,000.00,020.6,020.1,000.0,028.8,022.3,16.0,0000.0,0006.21,0002.72,0001.60
2024-04-02 18:44:00,SystemResetWarning,0831.7,5.01,000.00,020.6,020.1,000.0,028.8,022.3,15.6,0000.0,0006.06,0002.69,0001.60
2024-04-02 18:45:00,SystemResetWarning,0831.7,5.01,000.00,020.6,020.1,000.0,028.8,022.3,15.8,0000.0,0006.12,0002.69,0001.60
2024-04-02 18:46:00,SystemResetWarning,0831.7,5.01,000.00,020.6,020.1,000.0,028.8,022.3,15.1,0000.0,0006.34,0002.73,0001.59
2024-04-02 18:47:00,SystemResetWarning,0831.7,5.00,000.00,020.6,020.1,000.0,028.8,022.3,15.2,0000.0,0006.48,0002.78,0001.59
2024-04-02 18:48:00,SystemResetWarning,0831.7,4.99,000.00,020.6,020.1,000.0,028.9,022.4,15.1,0000.0,0006.45,0002.81,0001.59
2024-04-02 18:49:00,SystemResetWarning,0831.7,5.00,000.00,020.6,020.2,000.0,028.9,022.4,15.0,0000.0,0006.59,0002.83,0001.60
2024-04-02 18:50:00,SystemResetWarning,0831.6,4.99,000.00,020.6,020.2,000.0,028.9,022.4,14.8,0000.0,0006.76,0002.84,0001.61
2024-04-02 18:51:00,SystemResetWarning,0831.7,5.00,000.00,020.6,020.2,000.0,028.9,022.4,15.6,0000.0,0006.71,0002.91,0001.62
2024-04-02 18:52:00,SystemResetWarning,0831.6,5.01,000.00,020.7,020.2,000.0,028.9,022.4,15.2,0000.0,0006.82,0002.84,0001.61
2024-04-02 18:53:00,SystemResetWarning,0831.6,5.00,000.00,020.7,020.2,000.0,028.9,022.4,15.2,0000.0,0007.09,0002.89,0001.61
2024-04-02 18:54:00,SystemResetWarning,0831.6,4.99,000.00,020.7,020.2,000.0,028.9,022.4,14.8,0000.0,0007.17,0002.90,0001.62
2024-04-02 18:55:00,SystemResetWarning,0831.6,4.99,000.00,020.7,020.2,000.0,028.9,022.5,15.2,0000.0,0007.23,0002.91,0001.60
2024-04-02 18:56:00,SystemResetWarning,0831.5,5.01,000.00,020.7,020.2,000.0,029.0,022.5,15.4,0000.0,0007.25,0002.94,0001.60
2024-04-02 18:57:00,SystemResetWarning,0831.5,5.01,000.00,020.7,020.2,000.0,029.0,022.5,14.7,0000.0,0007.03,0002.89,0001.61
2024-04-02 18:58:00,SystemResetWarning,0831.5,5.01,000.00,020.7,020.3,000.0,029.0,022.5,15.1,0000.0,0007.13,0002.94,0001.62
2024-04-02 18:59:00,SystemResetWarning,0831.5,4.99,000.00,020.8,020.3,000.0,029.0,022.5,14.9,0000.0,0006.96,0002.89,0001.62
